Regional Weather Roundup
Issued by NWS

Home | Current Version | Previous Version | Graphics & Text | Print | Product List | Glossary Off
Versions: 1 2 3 4 5 6 7 8 9 10 11 12 13 14 15 16 17 18 19 20 21 22 23 24 25 26 27 28 29 30 31 32 33 34 35 36 37 38 39 40 41 42 43 44 45 46 47 48 49 50

000
ASUS43 KLSX 182157
RWRMO

WEATHER SUMMARY FOR MISSOURI
NATIONAL WEATHER SERVICE SPRINGFIELD MO
400 PM CST SAT NOV 18 2017

NOTE: "FAIR" INDICATES FEW OR NO CLOUDS BELOW 12,000 FEET WITH NO
       SIGNIFICANT WEATHER AND/OR OBSTRUCTIONS TO VISIBILITY.
       CURRENT SKY AND/OR WEATHER CONDITIONS ARE NOT AVAILABLE FOR
       CHILLICOTHE AND FARMINGTON.

MOZ001>031-035>038-043-044-053-054-182300-
...NORTHERN AND WESTERN MISSOURI...

CITY           SKY/WX    TMP DP  RH WIND       PRES   REMARKS
KANSAS CTY INT PTCLDY    50  32  50 NW20G26   30.00R
LEE`S SUMMIT   PTCLDY    50  31  48 NW25G31   30.00R
ST JOSEPH      CLEAR     50  31  48 N23G33    30.01R
CHILLICOTHE      N/A     49  31  49 NW14G26   29.96R

$$
MOZ066>068-077>081-088>096-101>105-182300-
...SOUTHWEST MISSOURI...

CITY           SKY/WX    TMP DP  RH WIND       PRES   REMARKS
SPRINGFIELD    CLOUDY    45  38  76 NW12G25   29.97R
JOPLIN         SUNNY     49  33  54 NW14G26   30.05R
BRANSON        CLOUDY    45  37  76 NW20G33   29.97R

$$
MOZ032>034-039>042-045>050-055>058-069>072-182300-
...CENTRAL MISSOURI...

CITY           SKY/WX    TMP DP  RH WIND       PRES   REMARKS
COLUMBIA       NOT AVBL
JEFFERSON CITY CLOUDY    46  36  68 NW15G22   29.90R
ROLLA          CLOUDY    42  39  89 NW15G29   29.86R
SEDALIA        CLOUDY    47  35  63 NW15G30   29.96R
WARRENSBURG    PTCLDY    48  30  49 NW15G25   29.98R

$$
MOZ051-052-059>065-182300-
...EAST CENTRAL MISSOURI...

CITY           SKY/WX    TMP DP  RH WIND       PRES   REMARKS
ST LOUIS INTL  CLOUDY    43  41  93 NW17G24   29.77R

$$
MOZ072>076-082>087-097>100-106>115-182300-
...SOUTH CENTRAL AND SOUTHEAST MISSOURI...

CITY           SKY/WX    TMP DP  RH WIND       PRES   REMARKS
CAPE GIRARDEAU CLOUDY    46  39  76 NW25G38   29.71R
FARMINGTON     LGT RAIN  41  37  87 NW18G28   29.78R
POPLAR BLUFF   CLOUDY    51  38  60 NW22G37   29.75R
WEST PLAINS    LGT RAIN  46  37  71 NW16G28   29.89R

$$



USA.gov is the U.S. government's official web portal to all federal, state and local government web resources and services.